• In Österreich
  • Länderverzeichnis
  • Für 7 Tage
  • Wassertemperatur
  • Satellitenkarten
  • Wetterkarte
  • News
  • Widgets
  • user-avatar
    Anmelden

    Stündliche Wetter Ordino

    Heute, 15 November, Donnerstag

    Zeit Temperatur Niederschläge Wind Luftdruck Luftfeuchtigkeit
    00:00 +4°C° 0 mm 2 m/S 635 mmHg 78%
    01:00 +4°C° 0 mm 2 m/S 635 mmHg 78%
    02:00 +4°C° 0 mm 2 m/S 635 mmHg 79%
    03:00 +4°C° 0 mm 2 m/S 634 mmHg 80%
    04:00 +4°C° 0 mm 2 m/S 634 mmHg 81%
    05:00 +4°C° 0 mm 2 m/S 634 mmHg 82%
    06:00 +4°C° 0 mm 2 m/S 634 mmHg 83%
    07:00 +5°C° 0 mm 2 m/S 635 mmHg 79%
    08:00 +7°C° 0 mm 2 m/S 635 mmHg 74%
    09:00 +8°C° 0 mm 2 m/S 636 mmHg 70%
    10:00 +9°C° 0 mm 2 m/S 636 mmHg 67%
    11:00 +10°C° 0 mm 2 m/S 637 mmHg 64%
    12:00 +12°C° 0 mm 2 m/S 637 mmHg 62%
    13:00 +12°C° 0.1 mm 2 m/S 637 mmHg 65%
    14:00 +10°C° 0.1 mm 2 m/S 636 mmHg 69%
    15:00 +10°C° 0.1 mm 2 m/S 636 mmHg 72%
    16:00 +10°C° 0.1 mm 1 m/S 636 mmHg 78%
    17:00 +8°C° 0.1 mm 1 m/S 635 mmHg 85%
    18:00 +7°C° 0.1 mm 1 m/S 635 mmHg 91%
    19:00 +6°C° 0 mm 1 m/S 635 mmHg 91%
    20:00 +6°C° 0 mm 1 m/S 635 mmHg 90%
    21:00 +6°C° 0 mm 1 m/S 635 mmHg 90%
    22:00 +6°C° 0 mm 1 m/S 635 mmHg 89%
    23:00 +6°C° 0 mm 1 m/S 635 mmHg 88%

    Morgen, 16 November, Freitag

    Zeit Temperatur Niederschläge Wind Luftdruck Luftfeuchtigkeit
    00:00 +6°C° 0 mm 1 m/S 635 mmHg 87%
    01:00 +5°C° 0 mm 1 m/S 635 mmHg 87%
    02:00 +5°C° 0 mm 1 m/S 635 mmHg 87%
    03:00 +5°C° 0 mm 1 m/S 635 mmHg 86%
    04:00 +5°C° 0 mm 1 m/S 635 mmHg 86%
    05:00 +5°C° 0 mm 1 m/S 634 mmHg 85%
    06:00 +5°C° 0 mm 1 m/S 634 mmHg 85%
    07:00 +6°C° 0 mm 1 m/S 635 mmHg 81%
    08:00 +7°C° 0 mm 1 m/S 636 mmHg 77%
    09:00 +9°C° 0 mm 1 m/S 636 mmHg 72%
    10:00 +10°C° 0 mm 1 m/S 637 mmHg 70%
    11:00 +10°C° 0 mm 2 m/S 637 mmHg 67%
    12:00 +12°C° 0 mm 2 m/S 637 mmHg 65%
    13:00 +10°C° 0 mm 2 m/S 637 mmHg 68%
    14:00 +10°C° 0 mm 2 m/S 636 mmHg 71%
    15:00 +9°C° 0 mm 2 m/S 636 mmHg 75%
    16:00 +9°C° 0 mm 1 m/S 635 mmHg 81%
    17:00 +8°C° 0 mm 1 m/S 635 mmHg 87%
    18:00 +6°C° 0 mm 1 m/S 634 mmHg 93%
    19:00 +6°C° 0 mm 1 m/S 635 mmHg 93%
    20:00 +6°C° 0 mm 1 m/S 635 mmHg 93%
    21:00 +6°C° 0 mm 1 m/S 635 mmHg 92%
    22:00 +6°C° 0 mm 1 m/S 634 mmHg 92%
    23:00 +5°C° 0 mm 1 m/S 634 mmHg 92%

    übermorgen, 17 November, Samstag

    Zeit Temperatur Niederschläge Wind Luftdruck Luftfeuchtigkeit
    00:00 +5°C° 0 mm 1 m/S 634 mmHg 92%
    01:00 +5°C° 0 mm 1 m/S 634 mmHg 92%
    02:00 +5°C° 0 mm 1 m/S 634 mmHg 91%
    03:00 +5°C° 0 mm 1 m/S 634 mmHg 91%
    04:00 +5°C° 0 mm 1 m/S 633 mmHg 90%
    05:00 +5°C° 0 mm 1 m/S 633 mmHg 90%
    06:00 +5°C° 0 mm 1 m/S 633 mmHg 89%
    07:00 +4°C° 0 mm 2 m/S 633 mmHg 86%
    08:00 +5°C° 0 mm 2 m/S 633 mmHg 83%
    09:00 +6°C° 0 mm 2 m/S 634 mmHg 81%
    10:00 +6°C° 0.1 mm 2 m/S 634 mmHg 79%
    11:00 +6°C° 0.1 mm 2 m/S 634 mmHg 77%
    12:00 +6°C° 0.1 mm 2 m/S 633 mmHg 75%
    13:00 +5°C° 0.3 mm 3 m/S 633 mmHg 77%
    14:00 +4°C° 0.3 mm 3 m/S 632 mmHg 80%
    15:00 +4°C° 0.3 mm 3 m/S 632 mmHg 82%
    16:00 +3°C° 0.6 mm 3 m/S 632 mmHg 84%
    17:00 +2°C° 0.6 mm 3 m/S 631 mmHg 86%
    18:00 +2°C° 0.6 mm 3 m/S 631 mmHg 87%
    19:00 +2°C° 0.5 mm 3 m/S 631 mmHg 87%
    20:00 +1°C° 0.5 mm 3 m/S 631 mmHg 87%
    21:00 +1°C° 0.5 mm 3 m/S 631 mmHg 87%
    22:00 +1°C° 0.6 mm 3 m/S 631 mmHg 87%
    23:00 +1°C° 0.6 mm 3 m/S 630 mmHg 87%

    18 November, Sonntag

    Zeit Temperatur Niederschläge Wind Luftdruck Luftfeuchtigkeit
    00:00 +1°C° 0.6 mm 3 m/S 630 mmHg 87%
    01:00 +1°C° 0.6 mm 2 m/S 629 mmHg 87%
    02:00 +1°C° 0.6 mm 2 m/S 629 mmHg 87%
    03:00 +1°C° 0.6 mm 2 m/S 629 mmHg 87%
    04:00 +1°C° 0.7 mm 2 m/S 629 mmHg 87%
    05:00 +1°C° 0.7 mm 2 m/S 628 mmHg 87%
    06:00 +1°C° 0.7 mm 2 m/S 628 mmHg 88%
    07:00 +1°C° 0.6 mm 3 m/S 628 mmHg 87%
    08:00 +1°C° 0.6 mm 3 m/S 629 mmHg 86%
    09:00 +2°C° 0.6 mm 3 m/S 629 mmHg 85%
    10:00 +1°C° 0.4 mm 4 m/S 629 mmHg 84%
    11:00 +3°C° 0.4 mm 4 m/S 629 mmHg 82%
    12:00 +3°C° 0.4 mm 4 m/S 629 mmHg 81%
    13:00 +3°C° 0.4 mm 4 m/S 629 mmHg 82%
    14:00 +3°C° 0.4 mm 4 m/S 628 mmHg 82%
    15:00 +3°C° 0.4 mm 4 m/S 628 mmHg 83%
    16:00 +2°C° 0.4 mm 3 m/S 628 mmHg 85%
    17:00 +1°C° 0.4 mm 3 m/S 627 mmHg 87%
    18:00 +1°C° 0.4 mm 3 m/S 627 mmHg 88%
    19:00 +1°C° 0.2 mm 3 m/S 627 mmHg 89%
    20:00 +1°C° 0.2 mm 2 m/S 627 mmHg 89%
    21:00 +1°C° 0.2 mm 2 m/S 627 mmHg 89%
    22:00 +1°C° 0.1 mm 2 m/S 626 mmHg 89%
    23:00 +1°C° 0.1 mm 2 m/S 626 mmHg 88%

    19 November, Montag

    Zeit Temperatur Niederschläge Wind Luftdruck Luftfeuchtigkeit
    00:00 +1°C° 0.1 mm 2 m/S 626 mmHg 88%
    01:00 +1°C° 0.1 mm 2 m/S 625 mmHg 87%
    02:00 +1°C° 0.1 mm 2 m/S 625 mmHg 87%
    03:00 +2°C° 0.1 mm 2 m/S 625 mmHg 86%
    04:00 +2°C° 0.1 mm 2 m/S 624 mmHg 86%
    05:00 +2°C° 0.1 mm 2 m/S 624 mmHg 85%
    06:00 +2°C° 0.1 mm 2 m/S 624 mmHg 85%
    07:00 +3°C° 0.3 mm 2 m/S 624 mmHg 83%
    08:00 +3°C° 0.3 mm 2 m/S 625 mmHg 81%
    09:00 +4°C° 0.3 mm 2 m/S 625 mmHg 80%
    10:00 +5°C° 0.4 mm 2 m/S 625 mmHg 78%
    11:00 +6°C° 0.4 mm 2 m/S 625 mmHg 77%
    12:00 +6°C° 0.4 mm 2 m/S 624 mmHg 75%
    13:00 +6°C° 0.3 mm 2 m/S 624 mmHg 77%
    14:00 +6°C° 0.3 mm 2 m/S 624 mmHg 79%
    15:00 +5°C° 0.3 mm 2 m/S 623 mmHg 80%
    16:00 +5°C° 0.1 mm 1 m/S 623 mmHg 84%
    17:00 +4°C° 0.1 mm 1 m/S 623 mmHg 87%
    18:00 +3°C° 0.1 mm 1 m/S 622 mmHg 91%
    19:00 +3°C° 0 mm 1 m/S 622 mmHg 91%
    20:00 +3°C° 0 mm 1 m/S 622 mmHg 91%
    21:00 +2°C° 0 mm 1 m/S 622 mmHg 91%
    22:00 +2°C° 0 mm 1 m/S 622 mmHg 90%
    23:00 +2°C° 0 mm 1 m/S 622 mmHg 90%

    20 November, Dienstag

    Zeit Temperatur Niederschläge Wind Luftdruck Luftfeuchtigkeit
    00:00 +2°C° 0 mm 1 m/S 622 mmHg 90%
    01:00 +2°C° 0 mm 1 m/S 621 mmHg 90%
    02:00 +1°C° 0 mm 1 m/S 621 mmHg 90%
    03:00 +1°C° 0 mm 1 m/S 621 mmHg 89%
    04:00 +1°C° 0 mm 1 m/S 621 mmHg 89%
    05:00 +1°C° 0 mm 1 m/S 620 mmHg 89%
    06:00 +1°C° 0 mm 1 m/S 620 mmHg 89%
    07:00 +2°C° 0 mm 1 m/S 621 mmHg 87%
    08:00 +3°C° 0 mm 1 m/S 622 mmHg 84%
    09:00 +4°C° 0 mm 1 m/S 622 mmHg 81%
    10:00 +5°C° 0 mm 1 m/S 622 mmHg 79%
    11:00 +5°C° 0 mm 1 m/S 622 mmHg 78%
    12:00 +5°C° 0 mm 2 m/S 623 mmHg 76%
    13:00 +5°C° 0 mm 2 m/S 622 mmHg 78%
    14:00 +4°C° 0 mm 2 m/S 622 mmHg 80%
    15:00 +4°C° 0 mm 2 m/S 622 mmHg 81%
    16:00 +3°C° 0 mm 2 m/S 622 mmHg 85%
    17:00 +2°C° 0 mm 2 m/S 621 mmHg 89%
    18:00 +2°C° 0 mm 1 m/S 621 mmHg 93%
    19:00 +2°C° 0.2 mm 1 m/S 621 mmHg 93%
    20:00 +2°C° 0.2 mm 1 m/S 621 mmHg 93%
    21:00 +2°C° 0.2 mm 1 m/S 621 mmHg 92%
    22:00 +1°C° 0.2 mm 2 m/S 621 mmHg 92%
    23:00 +1°C° 0.2 mm 2 m/S 621 mmHg 92%
    Mehr zeigen